Location: Rounton
(54.4000°N, 1.3500°W)
Time: 10:39:35
(UTC+00:00)

Tiros 1 - All Passes

Search period start: 22 February 2024 00:00
Search period end: 03 March 2024 00:00
Orbit: 625 x 658 km, 48.4° (Epoch: 21 February)

Date Brightness Start Highest point End Pass type
(mag) Time Alt. Az. Time Alt. Az. Time Alt. Az.
22 Feb - 01:36:32 10° WSW 01:41:00 40° S 01:45:25 10° ESE night (unlit)
22 Feb - 03:18:33 10° W 03:22:23 25° SSW 03:26:12 10° SSE night (unlit)
22 Feb - 22:38:14 10° SSW 22:42:06 25° SSE 22:45:58 10° E night (unlit)
23 Feb - 00:19:03 10° WSW 00:23:31 40° S 00:27:58 10° ESE night (unlit)
23 Feb - 02:00:44 10° W 02:05:03 34° SSW 02:09:20 10° SE night (unlit)
23 Feb - 03:43:17 10° WSW 03:46:14 16° SW 03:49:09 10° S night (unlit)
23 Feb - 21:22:11 10° S 21:24:55 15° SE 21:27:39 10° ESE night (unlit)
23 Feb - 23:01:47 10° SW 23:06:04 33° SSE 23:10:20 10° E night (unlit)
24 Feb - 00:43:07 10° WSW 00:47:35 40° S 00:52:02 10° ESE night (unlit)
24 Feb - 02:25:03 10° W 02:29:01 26° SSW 02:32:56 10° SSE night (unlit)
24 Feb - 21:44:58 10° SSW 21:48:44 23° SSE 21:52:30 10° E night (unlit)
24 Feb - 23:25:39 10° WSW 23:30:06 39° S 23:34:33 10° ESE night (unlit)
25 Feb - 01:07:17 10° WSW 01:11:39 36° SSW 01:15:59 10° SE night (unlit)
25 Feb - 02:49:41 10° WSW 02:52:53 18° SSW 02:56:03 10° S night (unlit)
25 Feb - 20:29:09 10° S 20:31:34 14° SE 20:33:59 10° ESE visible
25 Feb - 22:08:26 10° SW 22:12:39 32° SSE 22:16:53 10° E night (unlit)
25 Feb - 23:49:41 10° WSW 23:54:10 41° S 23:58:39 10° ESE night (unlit)
26 Feb - 01:31:35 10° W 01:35:38 28° SSW 01:39:39 10° SE night (unlit)
26 Feb - 03:15:38 10° SW 03:16:35 11° SW 03:17:32 10° SSW night (unlit)
26 Feb - 20:51:43 10° SSW 20:55:21 22° SSE 20:58:59 10° ESE visible
26 Feb - 22:32:15 10° WSW 22:36:41 39° S 22:41:07 10° ESE night (unlit)
27 Feb - 00:13:50 10° WSW 00:18:14 37° S 00:22:37 10° SE night (unlit)
27 Feb - 01:56:07 10° WSW 01:59:30 19° SSW 02:02:52 10° SSE night (unlit)
27 Feb - 19:36:11 10° SSE 19:38:12 13° SE 19:40:14 10° ESE visible
27 Feb - 21:15:06 10° SW 21:19:15 30° SSE 21:23:26 10° E visible
27 Feb - 22:56:15 10° WSW 23:00:45 41° S 23:05:14 10° ESE night (unlit)
28 Feb - 00:38:05 10° W 00:42:14 29° SSW 00:46:20 10° SE night (unlit)
28 Feb - 02:21:31 10° WSW 02:23:14 12° SW 02:24:58 10° SSW night (unlit)
28 Feb - 19:58:29 10° SSW 20:01:57 20° SSE 20:05:27 10° ESE visible
28 Feb - 21:38:51 10° WSW 21:43:16 38° S 21:47:40 10° ESE visible
28 Feb - 23:20:23 10° WSW 23:24:48 38° S 23:29:13 10° ESE night (unlit)
29 Feb - 01:02:34 10° WSW 01:06:07 21° SSW 01:09:39 10° SSE night (unlit)
29 Feb - 18:43:23 10° SSE 18:44:51 11° SE 18:46:18 10° ESE visible
29 Feb - 20:21:45 10° SW 20:25:50 29° SSE 20:29:57 10° E visible
29 Feb - 22:02:49 10° WSW 22:07:19 41° S 22:11:48 10° ESE visible
29 Feb - 23:44:36 10° W 23:48:48 31° SSW 23:52:59 10° SE night (unlit)
01 Mar - 01:27:40 10° WSW 01:29:53 13° SW 01:32:05 10° S night (unlit)
01 Mar - 19:05:16 10° SSW 19:08:33 19° SSE 19:11:52 10° ESE visible
01 Mar - 20:45:26 10° SW 20:49:49 36° SSE 20:54:12 10° ESE visible
01 Mar - 22:26:55 10° WSW 22:31:22 39° S 22:35:48 10° ESE visible
02 Mar - 00:09:01 10° WSW 00:12:43 22° SSW 00:16:24 10° SSE night (unlit)
02 Mar - 19:28:24 10° SW 19:32:24 27° SSE 19:36:26 10° E visible
02 Mar - 21:09:22 10° WSW 21:13:51 41° S 21:18:21 10° ESE visible
02 Mar - 22:51:07 10° W 22:55:22 32° SSW 22:59:37 10° SE visible
